Weather Roundup
Issued by NWS

Home | Current Version | Previous Version | Text Only | Print | Product List | Glossary On
Versions: 1 2 3 4 5 6 7 8 9 10 11 12 13 14 15 16 17 18 19 20 21 22 23 24 25 26 27 28 29 30 31 32 33 34 35 36 37 38 39 40 41 42 43 44 45 46 47 48 49 50
000
NZUS93 KARX 011359
HRRWXR

CURRENT HOURLY OBSERVATIONS ACROSS
MUCH OF THE UPPER MISSISSIPPI VALLEY
NATIONAL WEATHER SERVICE LA CROSSE WI
900 AM CDT SAT AUG 01 2015


...SOUTHEAST MINNESOTA...


CITY           SKY/WX    TMP DP  RH WIND       PRES   REMARKS
ROCHESTER      SUNNY     69  62  78 NW13      30.01R
ROCHESTER/MAYO FAIR      68  62  80 NW7       29.99S
WINONA         SUNNY     72  61  68 CALM      29.97S
AUSTIN         SUNNY     72  63  73 W10G16    30.00R
ALBERT LEA     SUNNY     72  63  73 W6        30.00S
DODGE CENTER   SUNNY     68  63  83 W10       30.00R
PRESTON        SUNNY     69  61  74 W8        30.00S
OWATONNA       SUNNY     70  63  78 W7        30.01R
FARIBAULT      SUNNY     70  63  78 W3        30.00R
$$

...ELSEWHERE IN MINNESOTA...


CITY           SKY/WX    TMP DP  RH WIND       PRES   REMARKS
MINNEAPOLIS    MOSUNNY   75  59  57 CALM      29.97S
INTNL FALLS    SUNNY     67  56  67 VRB6      29.90S
DULUTH         SUNNY     70  53  54 NW10      29.94S
RED WING       SUNNY     73  61  64 CALM      29.96S
REDWOOD FALLS  SUNNY     70  61  73 CALM      29.99S
MANKATO        SUNNY     68  61  77 NW7       30.00R
WORTHINGTON    SUNNY     72  64  78 SW10      30.03F
FAIRMONT       SUNNY     72  61  68 SW10      30.01F
$$

...SOUTHWEST WISCONSIN...


CITY           SKY/WX    TMP DP  RH WIND       PRES   REMARKS
LA CROSSE      MOSUNNY   72  60  66 S3        29.97S
PRAIRIE DU CHI PTSUNNY   68  59  72 CALM      29.99S
BOSCOBEL       PTSUNNY   71  62  73 CALM      29.99S
LONE ROCK      NOT AVBL
PLATTEVILLE    MOSUNNY   68  63  84 CALM      30.01F
FORT MC COY    MOSUNNY   67  57  68 CALM      29.98S
VIROQUA        FAIR      69  60  73 SW5       30.00S
WIS DELLS      CLOUDY    69  55  62 NW3       29.99R
$$

...ELSEWHERE IN WISCONSIN...


CITY           SKY/WX    TMP DP  RH WIND       PRES   REMARKS
MILWAUKEE      MOSUNNY   74  54  49 NW8       29.97R
MADISON        PTSUNNY   70  58  65 CALM      29.99R
GREEN BAY      SUNNY     70  56  61 NW9       29.93S
EAU CLAIRE     NOT AVBL
BLACK RVR FLS  PTSUNNY   65  58  77 CALM      29.98R
MEDFORD        SUNNY     66  53  63 NW9       29.97S
WAUSAU         SUNNY     69  51  52 NW14      29.95R
WIS RAPIDS     MOSUNNY   69  53  56 NW6       29.99R
MARSHFIELD     PTSUNNY   69  52  54 NW6       29.98S
RICE LAKE      SUNNY     65  58  78 CALM      29.98F
$$

...NORTHEAST IOWA...


CITY           SKY/WX    TMP DP  RH WIND       PRES   REMARKS
DECORAH        SUNNY     70  61  73 VRB7      29.99S
MASON CITY     SUNNY     75  65  70 W15       30.03S
CHARLES CITY   SUNNY     70  66  88 W10       30.01S
OELWEIN        SUNNY     68  63  83 SW6       30.02S
$$

...ELSEWHERE IN IOWA...


CITY           SKY/WX    TMP DP  RH WIND       PRES   REMARKS
DES MOINES     CLOUDY    77  66  68 SW7       30.04S
IOWA CITY      SUNNY     72  64  76 SW7       30.04S
FORT DODGE     SUNNY     73  66  78 SW5       30.05R
$$

...NORTHERN ILLINOIS...


CITY           SKY/WX    TMP DP  RH WIND       PRES   REMARKS
CHICAGO-OHARE  MOSUNNY   75  57  53 W8        29.99S
CHICAGO-MIDWAY MOSUNNY   77  55  46 W5        29.99S
MOLINE         SUNNY     75  62  64 SW3       30.02F
ROCKFORD       PTSUNNY   69  59  70 SW3       30.02S
PEORIA         SUNNY     77  61  57 CALM      30.05S
$$

NOTE: "FAIR" INDICATES FEW OR NO CLOUDS BELOW 12,000 FEET WITH NO
SIGNIFICANT WEATHER AND/OR OBSTRUCTIONS TO VISIBILITY. WIND
SPEEDS ARE IN MILES-PER-HOUR.



USA.gov is the U.S. government's official web portal to all federal, state and local government web resources and services.